Flag for U.S.A. Weather past 2 weeks in Virginia Beach, Virginia, U.S.A.

Now
30 °F

Clear.


Feels Like: 30 °F
Forecast: 30 / 46 °F
Wind: No wind

Location: Virginia Beach - Oceana

Current Time: Dec 21, 2014 at 3:34:07 AM

Latest Report: Dec 21, 2014 at 2:56 AM


Visibility: 7 mi

Pressure: 30.29 "Hg

Humidity: 89%

Dew point: 27 °F

Location of Virginia BeachLocation

Historic Weather in Virginia Beach — Graph

°F

Virginia Beach temperature yesterday

Maximum temperature yesterday: 41 °F (at 10:56 AM)
Minimum temperature yesterday: 30 °F (at 10:56 PM)
Average temperature yesterday: 36 °F

Past Weeks' High & Low Weather Summary

 TemperatureHumidityPressure
High65 °F (Dec 6, 1:56 PM)97% (Dec 16, 4:56 AM)30.43 "Hg (Dec 16, 4:56 AM)
Low29 °F (Dec 13, 3:56 AM)29% (Dec 12, 11:56 AM)29.80 "Hg (Dec 10, 1:56 PM)
Average44 °F71%30.08 "Hg
* Reported Dec 6 1:56 AM — Dec 21 1:56 AM, Virginia Beach, Weather by CustomWeather, © 2014

Note: Actual official high and low records may vary slightly from our data, if they occured in-between our weather recording intervals... More about our weather records

Advertising

Virginia Beach weather history for previous 24 hours

 ConditionsComfort  
Time TempWeatherWind HumidityBarometerVisibility
1:56 AM
Dec 21
30 °FIce fog.No wind89%30.29 "Hg6 mi
12:56 AM32 °FPassing clouds.No wind85%30.28 "Hg8 mi
11:56 PM
Dec 20
31 °FPassing clouds.No wind85%30.29 "Hg9 mi
10:56 PM30 °FPassing clouds.No wind85%30.29 "Hg10 mi
9:56 PM31 °FPassing clouds.No wind85%30.30 "Hg10 mi
8:56 PM32 °FPassing clouds.No wind82%30.30 "Hg10 mi
7:56 PM34 °FPassing clouds.No wind76%30.29 "Hg10 mi
6:56 PM36 °FPassing clouds.No wind73%30.30 "Hg10 mi
5:56 PM38 °FOvercast.5 mph70%30.28 "Hg10 mi
4:56 PM39 °FPassing clouds.3 mph65%30.27 "Hg10 mi
3:56 PM41 °FMostly cloudy.5 mph62%30.27 "Hg10 mi
2:56 PM41 °FOvercast.6 mph60%30.25 "Hg10 mi
1:56 PM41 °FMostly cloudy.6 mph60%30.26 "Hg10 mi
12:56 PM41 °FMostly cloudy.8 mph60%30.27 "Hg10 mi
11:56 AM40 °FMostly cloudy.6 mph63%30.29 "Hg10 mi
10:56 AM41 °FMostly cloudy.7 mph62%30.31 "Hg10 mi
9:56 AM40 °FMostly cloudy.7 mph63%30.32 "Hg10 mi
8:56 AM39 °FMostly cloudy.5 mph65%30.32 "Hg10 mi
7:56 AM37 °FMostly cloudy.6 mph70%30.28 "Hg10 mi
6:56 AM36 °FMostly cloudy.7 mph73%30.29 "Hg10 mi
5:56 AM36 °FPassing clouds.No wind73%30.27 "Hg10 mi
4:56 AM36 °FPassing clouds.8 mph75%30.24 "Hg10 mi
3:56 AM32 °FPassing clouds.No wind82%30.25 "Hg9 mi
Weather by CustomWeather, © 2014

See weather overviewHow to use our weather pages